Tracking 29892 objects as of 21-Nov-2024
HD Live streaming from Space Station
objects crossing your sky now

STARLINK-2728

Track STARLINK-2728 now!
10-day predictions
STARLINK-2728 is classified as:


NORAD ID: 48478
Int'l Code: 2021-040BC
Perigee: 553.3 km
Apogee: 555.4 km
Inclination: 53.1 °
Period: 95.6 minutes
Semi major axis: 6925 km
RCS: Unknown
Launch date: May 9, 2021
Source: United States (US)
Launch site: AIR FORCE EASTERN TEST RANGE (AFETR)
Your satellite tracking list
Your tracking list is empty




NASA's NSSDC Master Catalog

Two Line Element Set (TLE):
1 48478U 21040BC  24325.55816460  .00002371  00000-0  17801-3 0  9992
2 48478  53.0521 160.0788 0001479 101.1377 258.9778 15.06408035195025
Source of the keplerian elements: AFSPC